KQ4VHC Weather Reports


time (UTC)temp
F
wind
direction
speed
knots
gust
knots
rain 1hr
in
rain 24hr
in
rain mn
in
humidity
%
barometer
mb
20260507220503 54 255 0.9 3.5 0.00 0.06 0.04 85 1009.4
20260507220005 54 258 0.9 2.6 0.00 0.06 0.04 85 1009.5
20260507215504 54 266 0.9 2.6 0.00 0.06 0.04 85 1009.5
20260507215005 54 269 0.9 2.6 0.00 0.06 0.04 84 1009.5
20260507214511 54 248 0.0 2.6 0.00 0.06 0.04 85 1009.5
20260507214003 54 266 0.9 2.6 0.00 0.06 0.04 84 1009.5
20260507213503 54 256 0.0 3.5 0.00 0.06 0.04 83 1009.5
20260507213004 53 248 0.9 3.5 0.00 0.06 0.04 84 1009.5
20260507212502 53 217 1.7 2.6 0.00 0.06 0.04 83 1009.5
20260507212002 53 249 0.9 3.5 0.00 0.06 0.04 83 1009.6
20260507211505 54 243 1.7 3.5 0.00 0.06 0.04 82 1009.6
20260507211004 54 258 0.9 2.6 0.00 0.06 0.04 82 1009.6
20260507210502 53 231 0.9 2.6 0.00 0.06 0.04 82 1009.5
20260507210006 54 224 0.9 2.6 0.00 0.06 0.04 81 1009.5
20260507205502 54 276 1.7 2.6 0.00 0.06 0.04 80 1009.5
20260507205003 54 169 0.0 2.6 0.00 0.06 0.04 82 1009.5
20260507204505 53 233 0.0 2.6 0.00 0.06 0.04 81 1009.4
20260507204006 53 174 0.0 2.6 0.00 0.06 0.04 80 1009.4
20260507203507 53 212 1.7 4.3 0.00 0.06 0.04 79 1009.5
20260507203006 54 235 1.7 4.3 0.00 0.06 0.04 82 1009.6
20260507202502 54 191 0.0 3.5 0.00 0.06 0.04 82 1009.6
20260507202005 54 234 0.0 3.5 0.00 0.06 0.04 81 1009.7
20260507201512 54 201 1.7 3.5 0.00 0.06 0.04 81 1009.6
20260507201003 54 233 0.9 4.3 0.00 0.06 0.04 83 1009.5
20260507200503 54 178 0.9 4.3 0.00 0.06 0.04 84 1009.5
20260507200006 54 212 0.9 5.2 0.00 0.06 0.04 84 1009.8
20260507195503 54 186 2.6 5.2 0.00 0.06 0.04 82 1009.8
20260507195004 54 247 0.9 4.3 0.00 0.06 0.04 84 1009.9
20260507194506 54 214 0.9 4.3 0.01 0.06 0.04 83 1009.9
20260507194003 54 184 1.7 3.5 0.01 0.06 0.04 83 1009.9
20260507193503 54 238 0.9 3.5 0.01 0.06 0.04 84 1009.9
20260507193005 53 228 1.7 3.5 0.01 0.06 0.04 84 1009.9
20260507192505 53 167 1.7 3.5 0.01 0.06 0.04 84 1010.2
20260507192003 54 238 0.9 1.7 0.01 0.06 0.04 86 1010.3
20260507191509 54 52 0.0 1.7 0.01 0.06 0.04 85 1010.2
20260507191002 54 75 0.0 1.7 0.01 0.06 0.04 85 1010.1
20260507190506 54 189 0.0 1.7 0.01 0.06 0.04 84 1010.4
20260507190006 54 129 0.9 1.7 0.01 0.06 0.04 83 1010.3
20260507185504 54 52 0.0 1.7 0.01 0.06 0.04 86 1010.1
20260507185003 54 226 0.0 1.7 0.01 0.06 0.04 83 1010.3
20260507184506 54 237 0.0 1.7 0.00 0.05 0.03 83 1010.5
20260507184004 54 54 0.0 1.7 0.00 0.05 0.03 83 1010.6
20260507183505 54 59 0.9 1.7 0.00 0.05 0.03 82 1010.5
20260507183008 54 279 0.0 0.9 0.00 0.05 0.03 82 1010.4
20260507182503 54 288 0.0 0.9 0.00 0.05 0.03 83 1010.4
20260507182004 54 286 0.0 0.9 0.00 0.05 0.03 84 1010.4
20260507181507 53 286 0.0 1.7 0.00 0.05 0.03 83 1010.5
20260507181004 53 31 0.0 1.7 0.00 0.05 0.03 82 1010.4
20260507180504 53 66 0.9 1.7 0.00 0.05 0.03 82 1010.5
20260507180006 53 67 0.0 1.7 0.00 0.05 0.03 82 1010.4
20260507175508 53 141 0.0 2.6 0.00 0.05 0.03 82 1010.6
20260507175005 53 141 0.0 3.5 0.00 0.05 0.03 82 1010.7
20260507174514 53 60 0.0 3.5 0.00 0.05 0.03 82 1010.7
20260507174007 53 44 0.9 2.6 0.00 0.05 0.03 82 1010.8
20260507173507 53 34 0.9 2.6 0.00 0.05 0.03 83 1010.7
20260507173013 53 29 1.7 2.6 0.00 0.05 0.03 83 1010.7
20260507172504 53 57 0.9 2.6 0.00 0.05 0.03 84 1010.7
20260507172004 53 53 0.9 1.7 0.00 0.05 0.03 85 1010.8
20260507171509 53 85 0.0 1.7 0.00 0.05 0.03 84 1010.8
20260507171003 52 125 0.9 2.6 0.00 0.05 0.03 86 1010.9
20260507170503 52 129 0.9 2.6 0.00 0.05 0.03 86 1010.9
20260507170008 52 58 0.9 3.5 0.00 0.05 0.03 85 1011.0
20260507165508 52 80 0.0 3.5 0.00 0.05 0.03 87 1011.3
20260507165005 52 68 1.7 3.5 0.00 0.05 0.03 86 1011.2
20260507164507 52 97 0.0 3.5 0.00 0.05 0.03 87 1011.3
20260507164005 52 99 0.9 3.5 0.00 0.05 0.03 87 1011.4
20260507163505 52 82 0.9 2.6 0.00 0.05 0.03 88 1011.5
20260507163007 52 132 0.9 2.6 0.00 0.05 0.03 87 1011.6
20260507162503 52 160 0.0 6.1 0.00 0.05 0.03 87 1011.6
20260507162008 52 58 0.9 6.1 0.00 0.05 0.03 87 1011.7
20260507161511 52 49 0.9 4.3 0.01 0.05 0.03 87 1011.6
20260507161005 52 38 1.7 4.3 0.01 0.05 0.03 87 1011.7
20260507160504 52 34 1.7 4.3 0.01 0.05 0.03 87 1011.8
20260507160012 52 79 0.9 5.2 0.01 0.05 0.03 88 1011.7
20260507155504 53 18 1.7 5.2 0.01 0.05 0.03 89 1011.8
20260507155004 53 131 0.0 2.6 0.01 0.05 0.03 88 1011.9
20260507154514 53 129 0.0 3.5 0.01 0.05 0.03 88 1012.1
20260507154004 53 149 0.0 3.5 0.01 0.05 0.03 87 1012.1
20260507153505 53 50 1.7 3.5 0.01 0.05 0.03 87 1011.9
20260507153018 53 29 0.9 2.6 0.01 0.05 0.03 86 1012.1
20260507152503 53 72 0.9 2.6 0.01 0.05 0.03 85 1012.0
20260507152001 53 123 0.0 2.6 0.01 0.05 0.03 86 1012.1
20260507151511 53 49 0.0 2.6 0.00 0.04 0.02 85 1012.2
20260507151003 54 67 0.9 2.6 0.00 0.04 0.02 85 1011.9
20260507150503 54 39 0.9 2.6 0.00 0.04 0.02 86 1011.7
20260507150008 54 60 1.7 3.5 0.00 0.04 0.02 86 1011.7
20260507145507 53 89 1.7 3.5 0.00 0.04 0.02 85 1011.9
20260507145006 53 75 0.9 4.3 0.00 0.04 0.02 86 1011.8
20260507144514 53 48 1.7 4.3 0.00 0.04 0.02 86 1011.9
20260507144006 53 90 0.9 4.3 0.00 0.04 0.02 87 1011.9
20260507143503 53 54 1.7 5.2 0.00 0.04 0.02 86 1011.9
20260507143012 53 36 2.6 5.2 0.00 0.04 0.02 85 1012.0
20260507142506 53 24 2.6 5.2 0.00 0.04 0.02 85 1012.2
20260507142004 53 338 0.9 5.2 0.00 0.04 0.02 85 1012.2
20260507141512 53 40 2.6 5.2 0.00 0.04 0.02 85 1012.2
20260507141003 53 41 1.7 3.5 0.00 0.04 0.02 85 1012.2
20260507140503 53 62 0.0 5.2 0.00 0.04 0.02 86 1012.3
20260507140026 53 30 1.7 5.2 0.00 0.04 0.02 84 1012.2
20260507135504 53 46 1.7 6.1 0.00 0.04 0.02 85 1012.2
20260507135007 53 34 2.6 6.1 0.00 0.04 0.02 85 1012.3
20260507134512 53 33 2.6 4.3 0.00 0.04 0.02 85 1012.3
20260507134004 53 46 1.7 4.3 0.00 0.04 0.02 86 1012.4
20260507133504 53 71 1.7 3.5 0.00 0.05 0.02 85 1012.4
20260507133014 53 83 0.9 3.5 0.00 0.05 0.02 87 1012.3
20260507132504 53 61 1.7 3.5 0.00 0.05 0.02 86 1012.4
20260507132003 53 44 0.9 3.5 0.00 0.05 0.02 86 1012.4
20260507131517 53 51 1.7 2.6 0.00 0.05 0.02 87 1012.3
20260507131007 53 66 0.0 2.6 0.00 0.05 0.02 86 1012.3
20260507130507 53 26 0.9 2.6 0.00 0.05 0.02 86 1012.3
20260507130006 53 42 0.9 4.3 0.00 0.06 0.02 86 1012.1
20260507125506 53 53 1.7 4.3 0.00 0.06 0.02 86 1012.1
20260507125004 53 25 1.7 3.5 0.00 0.06 0.02 86 1012.0
20260507124507 53 75 1.7 3.5 0.00 0.06 0.02 86 1012.1
20260507124003 53 40 0.9 3.5 0.00 0.06 0.02 87 1012.0
20260507123507 53 66 1.7 3.5 0.00 0.06 0.02 87 1012.0
20260507123010 53 25 0.9 4.3 0.00 0.06 0.02 88 1012.0
20260507122513 53 58 2.6 4.3 0.00 0.06 0.02 87 1012.0
20260507122008 53 25 2.6 5.2 0.00 0.06 0.02 88 1012.0
20260507121516 53 41 1.7 5.2 0.00 0.06 0.02 88 1012.0
20260507121007 53 61 1.7 4.3 0.00 0.06 0.02 89 1012.0
20260507120509 53 86 0.9 4.3 0.00 0.06 0.02 89 1011.9
20260507120028 53 44 1.7 4.3 0.00 0.06 0.02 90 1011.8
20260507115504 53 64 1.7 2.6 0.00 0.06 0.02 90 1011.7
20260507115007 53 71 0.0 2.6 0.00 0.06 0.02 91 1011.9
20260507114516 53 75 0.9 2.6 0.00 0.06 0.02 90 1011.9
20260507114010 53 65 0.0 1.7 0.00 0.06 0.02 91 1011.7
20260507113506 53 68 0.0 2.6 0.00 0.06 0.02 91 1011.7
20260507113008 53 34 0.0 2.6 0.00 0.06 0.02 91 1011.5
20260507112506 53 30 0.9 1.7 0.00 0.06 0.02 91 1011.4
20260507112008 53 72 0.0 1.7 0.00 0.06 0.02 91 1011.4
20260507111515 53 79 0.0 1.7 0.00 0.06 0.02 90 1011.4
20260507111005 53 46 0.9 2.6 0.00 0.06 0.02 90 1011.4
20260507110506 53 39 0.9 2.6 0.00 0.06 0.02 90 1011.4
20260507110018 53 40 1.7 2.6 0.00 0.06 0.02 90 1011.2
20260507105506 53 75 0.9 2.6 0.00 0.06 0.02 90 1011.0
20260507105007 53 77 0.9 3.5 0.00 0.06 0.02 90 1011.1
20260507104520 53 59 0.9 3.5 0.00 0.06 0.02 90 1010.9
20260507104010 53 39 1.7 5.2 0.00 0.06 0.02 90 1010.7
20260507103506 53 86 0.9 5.2 0.00 0.06 0.02 90 1010.9
20260507103020 53 58 1.7 6.1 0.00 0.06 0.02 90 1010.7
20260507102504 54 80 0.9 6.1 0.00 0.06 0.02 90 1010.9
20260507102006 54 96 2.6 5.2 0.00 0.06 0.02 89 1010.9
20260507101520 54 51 1.7 7.0 0.00 0.06 0.02 89 1010.9
20260507101007 54 39 3.5 7.0 0.00 0.06 0.02 90 1011.0
20260507100503 54 49 1.7 3.5 0.00 0.06 0.02 91 1011.0
20260507100030 54 39 1.7 3.5 0.00 0.06 0.02 91 1010.8
20260507095506 54 46 1.7 3.5 0.00 0.06 0.02 91 1010.7
20260507095008 54 56 1.7 3.5 0.00 0.06 0.02 91 1011.0
20260507094522 54 30 1.7 4.3 0.00 0.06 0.02 91 1010.9
20260507094006 55 52 2.6 5.2 0.00 0.06 0.02 91 1010.8
20260507093507 55 77 1.7 5.2 0.00 0.06 0.02 91 1010.6
20260507093027 55 30 2.6 4.3 0.00 0.06 0.02 91 1010.4
20260507092511 55 95 0.9 4.3 0.00 0.06 0.02 92 1010.4
20260507092008 55 48 1.7 4.3 0.00 0.06 0.02 91 1010.6
20260507091521 55 51 0.0 4.3 0.00 0.06 0.02 91 1010.8
20260507091004 55 28 1.7 7.0 0.00 0.06 0.02 91 1010.6
20260507090505 55 57 3.5 7.0 0.00 0.06 0.02 91 1010.6
20260507090024 55 58 1.7 6.1 0.00 0.06 0.02 91 1010.4
20260507085504 56 115 2.6 6.1 0.00 0.06 0.02 91 1010.6
20260507085005 56 40 1.7 4.3 0.00 0.06 0.02 91 1010.6
20260507084539 56 32 1.7 6.1 0.00 0.06 0.02 91 1010.4
20260507084005 56 33 2.6 6.1 0.00 0.06 0.02 91 1010.3
20260507083508 56 27 3.5 6.1 0.00 0.06 0.02 91 1010.1
20260507083025 56 37 3.5 6.1 0.00 0.06 0.02 92 1010.1
20260507082509 56 350 1.7 6.1 0.00 0.06 0.02 92 1010.3
20260507082006 56 47 3.5 6.1 0.00 0.06 0.02 92 1010.2
20260507081522 57 30 2.6 6.1 0.00 0.06 0.02 92 1010.1
20260507081012 57 34 2.6 6.1 0.00 0.06 0.02 92 1010.2
20260507080507 58 77 3.5 7.0 0.00 0.06 0.02 92 1010.1
20260507080022 58 23 4.3 7.0 0.00 0.06 0.02 92 1010.1
20260507075503 58 58 4.3 7.0 0.00 0.06 0.02 91 1010.1
20260507075008 59 34 3.5 7.0 0.00 0.06 0.02 91 1009.8
20260507074516 60 52 2.6 5.2 0.00 0.06 0.02 91 1009.9
20260507074004 61 28 2.6 5.2 0.00 0.06 0.02 91 1009.9
20260507073505 62 72 2.6 5.2 0.00 0.06 0.02 92 1009.7
20260507073025 62 80 0.9 5.2 0.00 0.06 0.02 92 1009.8
20260507072509 62 49 2.6 5.2 0.00 0.06 0.02 91 1009.3
20260507072006 63 46 0.0 6.1 0.00 0.06 0.02 89 1009.3
20260507071524 63 20 4.3 6.1 0.00 0.06 0.02 87 1008.9
20260507071008 65 359 0.9 6.1 0.00 0.06 0.02 80 1009.2
20260507070510 64 262 2.6 6.1 0.00 0.06 0.02 76 1009.0
20260507070026 64 231 2.6 5.2 0.00 0.06 0.02 78 1008.9
20260507065511 63 277 2.6 5.2 0.00 0.06 0.02 83 1008.9
20260507065006 63 338 0.0 2.6 0.00 0.06 0.02 86 1008.8
20260507064526 63 270 0.9 2.6 0.00 0.06 0.02 85 1008.8
20260507064010 63 330 1.7 3.5 0.00 0.06 0.02 86 1008.8
20260507063506 63 274 1.7 3.5 0.00 0.06 0.02 88 1008.9
20260507063017 63 243 1.7 2.6 0.00 0.06 0.02 89 1009.1
20260507062505 63 248 0.9 1.7 0.00 0.06 0.02 91 1009.2
20260507062010 63 237 0.9 3.5 0.00 0.06 0.02 92 1009.4
20260507061530 63 252 0.9 3.5 0.00 0.06 0.02 93 1009.3
20260507061010 62 268 1.7 4.3 0.00 0.06 0.02 93 1009.3
20260507060507 62 195 2.6 4.3 0.00 0.06 0.02 94 1009.1
20260507060035 62 250 0.9 1.7 0.00 0.06 0.02 94 1009.4
20260507055508 62 124 0.0 0.9 0.00 0.06 0.02 94 1009.3
20260507055010 62 119 0.0 1.7 0.00 0.06 0.02 94 1009.4
20260507054535 62 356 0.0 1.7 0.00 0.06 0.02 94 1009.4
20260507054010 62 349 0.0 1.7 0.00 0.06 0.02 94 1009.5
20260507053517 62 347 0.0 1.7 0.01 0.06 0.02 94 1009.3
20260507053023 62 37 0.0 0.0 0.01 0.06 0.02 94 1009.2
20260507052511 63 37 0.0 0.9 0.01 0.06 0.02 94 1009.0
20260507052007 63 37 0.0 0.9 0.02 0.06 0.02 94 1008.9
20260507051520 63 314 0.0 0.0 0.02 0.06 0.02 93 1008.7
20260507051009 63 278 0.0 0.0 0.02 0.06 0.02 93 1008.3
20260507050505 63 334 0.0 0.0 0.02 0.06 0.02 93 1008.1
20260507050047 63 335 0.0 0.0 0.02 0.06 0.02 93 1008.0
20260507045508 63 335 0.0 0.0 0.02 0.06 0.02 93 1008.1
20260507045007 63 335 0.0 0.0 0.02 0.06 0.02 92 1008.3
20260507044531 63 335 0.0 0.0 0.03 0.06 0.02 92 1008.5
20260507044011 63 255 0.0 0.9 0.03 0.06 0.02 92 1008.9
20260507043510 63 253 0.0 1.7 0.02 0.05 0.01 92 1009.0
20260507043025 63 299 0.9 1.7 0.02 0.05 0.01 91 1009.2
20260507042509 63 257 0.0 2.6 0.02 0.05 0.01 91 1009.0
20260507042014 64 274 0.0 2.6 0.02 0.04 0.00 91 1009.1
20260507041517 63 276 0.0 1.7 0.02 0.04 0.00 92 1009.3
20260507041007 63 263 0.9 1.7 0.02 0.04 0.00 92 1009.2
20260507040509 63 250 0.9 1.7 0.02 0.04 0.00 91 1009.0
20260507040025 64 297 0.0 0.9 0.02 0.04 0.00 90 1009.0
20260507035509 64 297 0.0 1.7 0.02 0.04 0.04 90 1009.1
20260507035003 64 275 0.9 2.6 0.02 0.04 0.04 89 1009.0
20260507034507 64 269 0.0 2.6 0.01 0.03 0.03 89 1008.9
20260507034008 64 257 0.9 2.6 0.01 0.03 0.03 89 1009.2
20260507033503 64 263 1.7 4.3 0.01 0.03 0.03 88 1009.5
20260507033008 65 261 1.7 5.2 0.01 0.03 0.03 88 1009.7
20260507032504 65 290 1.7 5.2 0.01 0.03 0.03 87 1009.7
20260507032003 65 239 3.5 5.2 0.00 0.02 0.02 86 1009.5
20260507031514 65 255 3.5 5.2 0.00 0.02 0.02 86 1009.6
20260507031007 65 264 0.9 4.3 0.00 0.02 0.02 86 1009.6
20260507030508 65 310 1.7 4.3 0.00 0.02 0.02 85 1009.5
20260507030016 65 245 2.6 4.3 0.00 0.02 0.02 84 1009.2
20260507025509 65 257 1.7 5.2 0.00 0.02 0.02 84 1009.3
20260507025012 66 255 3.5 5.2 0.00 0.02 0.02 84 1009.2
20260507024520 66 250 2.6 5.2 0.00 0.02 0.02 83 1009.1
20260507024012 66 278 1.7 5.2 0.00 0.02 0.02 83 1009.1
20260507023509 66 229 2.6 4.3 0.00 0.02 0.02 84 1009.3
20260507023005 66 279 2.6 4.3 0.00 0.02 0.02 84 1009.4
20260507022505 65 282 1.7 5.2 0.00 0.02 0.02 84 1009.3
20260507022005 65 261 1.7 5.2 0.00 0.02 0.02 84 1009.3
20260507021518 65 271 1.7 5.2 0.00 0.02 0.02 84 1009.3
20260507021004 65 266 2.6 3.5 0.00 0.02 0.02 85 1009.0
20260507020504 65 263 1.7 4.3 0.00 0.02 0.02 85 1009.0
20260507020021 65 270 2.6 4.3 0.00 0.02 0.02 85 1008.9
20260507015506 65 289 1.7 3.5 0.00 0.02 0.02 85 1008.6
20260507015007 64 266 1.7 3.5 0.00 0.02 0.02 85 1008.7
20260507014528 64 270 1.7 2.6 0.00 0.02 0.02 85 1008.8
20260507014010 65 236 0.9 2.6 0.00 0.02 0.02 85 1008.9
20260507013511 65 262 1.7 2.6 0.00 0.02 0.02 85 1009.0
20260507013023 65 255 1.7 2.6 0.00 0.02 0.02 84 1009.0
20260507012506 65 265 1.7 2.6 0.00 0.02 0.02 84 1009.2
20260507012013 65 261 0.9 2.6 0.00 0.02 0.02 84 1009.0
20260507011515 65 262 1.7 2.6 0.00 0.02 0.02 83 1009.0
20260507011004 65 255 0.9 3.5 0.00 0.02 0.02 83 1009.0
20260507010506 65 277 1.7 3.5 0.00 0.02 0.02 83 1009.3
20260507010026 65 260 0.9 2.6 0.00 0.02 0.02 83 1009.3
20260507005504 65 258 1.7 3.5 0.00 0.02 0.02 83 1009.5
20260507005007 66 244 0.9 3.5 0.00 0.02 0.02 82 1009.3
20260507004526 66 267 1.7 3.5 0.00 0.02 0.02 82 1009.3
20260507004011 66 261 1.7 4.3 0.00 0.02 0.02 82 1009.2
20260507003511 66 266 1.7 4.3 0.00 0.02 0.02 82 1009.2
20260507003022 66 272 2.6 4.3 0.00 0.02 0.02 82 1009.2
20260507002507 66 269 2.6 5.2 0.00 0.02 0.02 81 1009.2
20260507002010 66 219 2.6 5.2 0.00 0.02 0.02 81 1009.0
20260507001522 66 271 2.6 5.2 0.00 0.02 0.02 81 1009.2
20260507001008 67 258 2.6 5.2 0.00 0.02 0.02 81 1009.3
20260507000513 67 266 1.7 5.2 0.00 0.02 0.02 81 1009.2
20260507000010 67 275 2.6 5.2 0.00 0.02 0.02 80 1009.2
20260506235504 67 253 2.6 6.1 0.00 0.02 0.02 80 1009.1
20260506235007 67 233 2.6 6.1 0.00 0.02 0.02 80 1009.0
20260506234514 67 271 3.5 6.1 0.00 0.02 0.02 80 1009.1
20260506234007 67 270 2.6 6.1 0.00 0.02 0.02 79 1008.7
20260506233508 67 249 2.6 7.0 0.00 0.02 0.02 79 1008.4
20260506233018 68 236 2.6 7.0 0.00 0.02 0.02 79 1008.7
20260506232507 68 237 4.3 7.0 0.00 0.02 0.02 79 1008.9
20260506232008 68 243 4.3 7.0 0.00 0.02 0.02 79 1009.1
20260506231526 68 229 3.5 9.6 0.00 0.02 0.02 78 1009.1
20260506231007 68 249 5.2 9.6 0.00 0.02 0.02 78 1009.0
20260506230506 68 230 5.2 9.6 0.00 0.02 0.02 78 1009.0
20260506230026 68 266 4.3 8.7 0.00 0.02 0.02 77 1008.9
20260506225513 69 263 4.3 8.7 0.00 0.02 0.02 77 1008.8
20260506225008 69 248 3.5 7.8 0.00 0.02 0.02 76 1008.7
20260506224513 69 238 3.5 7.0 0.00 0.02 0.02 76 1008.8
20260506224006 70 273 2.6 10.4 0.00 0.02 0.02 75 1008.6
20260506223511 70 277 5.2 10.4 0.00 0.02 0.02 75 1008.2
20260506223018 70 266 5.2 9.6 0.00 0.02 0.02 75 1008.3
20260506222506 70 252 6.1 8.7 0.00 0.02 0.02 74 1008.5
20260506222013 70 234 4.3 8.7 0.00 0.02 0.02 75 1008.3
20260506221522 69 248 3.5 8.7 0.00 0.02 0.02 76 1008.2
20260506221007 69 278 5.2 7.0 0.00 0.02 0.02 75 1008.5